Stephenville, TX

6:59 PM CDT on May 25, 2017 (GMT -0500)
Clark Municipal

Weather History for KSEP - March, 2014

Change the Weather History Date:

Wednesday, March 19, 2014

  Actual Average Record
Temperature  
Mean Temperature 52 °F -  
Max Temperature 63 °F 67 °F 88 °F (1963)
Min Temperature 41 °F 45 °F 15 °F (1923)
Degree Days  
Heating Degree Days 13    
Growing Degree Days 2 (Base 50)    
Moisture  
Dew Point 27 °F    
Average Humidity 39    
Maximum Humidity 60    
Minimum Humidity 22    
Precipitation  
Precipitation 0.00 in - - ()
Sea Level Pressure  
Sea Level Pressure 30.16 in    
Wind  
Wind Speed 13 mph (North)    
Max Wind Speed 21 mph    
Max Gust Speed 31 mph    
Visibility 10 miles    
Events      
Averages and records for this station are not official NWS values.
T = Trace of Precipitation, MM = Missing Value Source: NWS Daily Summary

Daily Weather History Graph

Daily Weather History Graph

Search for Another Location

Airport or City:

Trip Planner

Search our weather history database for the weather conditions in past years. The results will help you decide how hot, cold, wet, or windy it might be!

Date:

Astronomy

Mar. 19, 2014 Rise Set
Actual Time 7:37 AM CDT 7:43 PM CDT
Civil Twilight 7:13 AM CDT 8:08 PM CDT
Nautical Twilight 6:44 AM CDT 8:36 PM CDT
Astronomical Twilight 6:16 AM CDT 9:05 PM CDT
Moon 10:51 PM CDT (3/19) 9:15 AM CDT (3/19)
Length of Visible Light 12h 54m
Length of Day
12h 05m
Waning Gibbous, 91% of the Moon is Illuminated
Mar 19
Waning Gibbous
Mar 23
Last Quarter
Mar 30
New
Apr 7
First Quarter
Apr 15
Full

Hourly Weather History & Observations

Time (CDT) Temp. Windchill Dew Point Humidity Pressure Visibility Wind Dir Wind Speed Gust Speed Precip Events Conditions
12:15 AM 61.9 °F - 22.1 °F 22% 29.96 in 5.0 mi North 18.4 mph 31.1 mph N/A   Overcast
12:35 AM 60.6 °F - 23.0 °F 24% 29.96 in 7.0 mi North 17.3 mph 23.0 mph N/A   Overcast
12:55 AM 59.5 °F - 21.7 °F 23% 29.98 in 7.0 mi North 20.7 mph 26.5 mph N/A   Overcast
1:15 AM 58.1 °F - 23.0 °F 26% 29.99 in 7.0 mi North 17.3 mph - N/A   Mostly Cloudy
1:35 AM 56.3 °F - 23.4 °F 28% 30.00 in 7.0 mi NNW 13.8 mph 23.0 mph N/A   Overcast
1:55 AM 55.4 °F - 24.6 °F 30% 30.02 in 7.0 mi NNW 16.1 mph - N/A   Overcast
2:15 AM 53.8 °F - 23.5 °F 31% 30.04 in 7.0 mi North 15.0 mph 24.2 mph N/A   Mostly Cloudy
2:35 AM 52.5 °F - 24.3 °F 33% 30.06 in 7.0 mi North 12.7 mph 23.0 mph N/A   Mostly Cloudy
2:55 AM 51.4 °F - 25.3 °F 36% 30.05 in 7.0 mi NNW 16.1 mph 23.0 mph N/A   Overcast
3:15 AM 49.6 °F - 26.1 °F 40% 30.06 in 10.0 mi North 12.7 mph - N/A   Mostly Cloudy
3:35 AM 48.9 °F - 26.4 °F 42% 30.06 in 10.0 mi NNW 17.3 mph - N/A   Clear
3:55 AM 48.2 °F - 26.6 °F 43% 30.06 in 10.0 mi North 16.1 mph - N/A   Clear
4:15 AM 47.5 °F - 26.8 °F 45% 30.06 in 10.0 mi NNW 15.0 mph 23.0 mph N/A   Clear
4:35 AM 46.8 °F - 27.5 °F 47% 30.07 in 10.0 mi NNW 17.3 mph 23.0 mph N/A   Clear
4:55 AM 46.2 °F 39.3 °F 27.5 °F 48% 30.07 in 10.0 mi NNW 17.3 mph - N/A   Clear
5:15 AM 45.9 °F 39.1 °F 27.1 °F 48% 30.07 in 10.0 mi North 16.1 mph 23.0 mph N/A   Clear
5:35 AM 45.1 °F 39.1 °F 27.5 °F 50% 30.09 in 10.0 mi North 12.7 mph 20.7 mph N/A   Clear
5:55 AM 44.6 °F 39.7 °F 28.0 °F 52% 30.11 in 10.0 mi North 9.2 mph - N/A   Clear
6:15 AM 44.1 °F 38.6 °F 28.0 °F 53% 30.12 in 10.0 mi North 10.4 mph 16.1 mph N/A   Clear
6:35 AM 43.3 °F 37.7 °F 28.4 °F 56% 30.14 in 10.0 mi NNW 10.4 mph - N/A   Scattered Clouds
6:55 AM 43.2 °F 38.4 °F 28.4 °F 56% 30.16 in 10.0 mi NNW 8.1 mph - N/A   Clear
7:15 AM 42.6 °F 36.8 °F 28.4 °F 57% 30.16 in 10.0 mi NNW 10.4 mph - N/A   Clear
7:35 AM 41.9 °F 35.4 °F 28.8 °F 60% 30.17 in 10.0 mi NNW 11.5 mph - N/A   Scattered Clouds
7:55 AM 42.3 °F 35.9 °F 28.9 °F 59% 30.18 in 10.0 mi NNW 11.5 mph - N/A   Clear
8:15 AM 43.0 °F 36.4 °F 28.9 °F 58% 30.18 in 10.0 mi NNW 12.7 mph 18.4 mph N/A   Clear
8:35 AM 44.2 °F 37.0 °F 28.9 °F 55% 30.19 in 10.0 mi North 16.1 mph 21.9 mph N/A   Clear
8:55 AM 45.5 °F 38.3 °F 28.6 °F 52% 30.20 in 10.0 mi North 17.3 mph 24.2 mph N/A   Clear
9:15 AM 45.0 °F 38.2 °F 28.6 °F 53% 30.21 in 10.0 mi North 15.0 mph 23.0 mph N/A   Clear
9:35 AM 46.4 °F 39.0 °F 28.9 °F 51% 30.21 in 10.0 mi North 19.6 mph 25.3 mph N/A   Clear
9:55 AM 48.0 °F - 28.6 °F 47% 30.21 in 10.0 mi North 19.6 mph 27.6 mph N/A   Clear
10:15 AM 49.6 °F - 28.6 °F 44% 30.23 in 10.0 mi North 16.1 mph - N/A   Clear
10:35 AM 49.6 °F - 28.0 °F 43% 30.23 in 10.0 mi North 20.7 mph 25.3 mph N/A   Clear
10:55 AM 50.9 °F - 28.4 °F 42% 30.23 in 10.0 mi North 19.6 mph 25.3 mph N/A   Clear
11:15 AM 51.8 °F - 29.1 °F 42% 30.24 in 10.0 mi North 13.8 mph 23.0 mph N/A   Clear
11:35 AM 53.1 °F - 29.3 °F 40% 30.23 in 10.0 mi NNW 16.1 mph 21.9 mph N/A   Clear
11:55 AM 54.1 °F - 29.1 °F 38% 30.24 in 10.0 mi North 17.3 mph 20.7 mph N/A   Clear
12:15 PM 55.2 °F - 29.1 °F 37% 30.24 in 10.0 mi North 11.5 mph 19.6 mph N/A   Clear
12:35 PM 56.8 °F - 29.3 °F 35% 30.24 in 10.0 mi North 15.0 mph 21.9 mph N/A   Clear
12:55 PM 57.2 °F - 28.9 °F 34% 30.24 in 10.0 mi North 10.4 mph 20.7 mph N/A   Clear
1:15 PM 58.1 °F - 29.3 °F 33% 30.24 in 10.0 mi North 9.2 mph - N/A   Clear
1:35 PM 58.5 °F - 29.3 °F 33% 30.23 in 10.0 mi North 11.5 mph - N/A   Clear
1:55 PM 59.4 °F - 29.1 °F 32% 30.22 in 10.0 mi North 12.7 mph 17.3 mph N/A   Clear
2:15 PM 60.8 °F - 29.3 °F 30% 30.22 in 10.0 mi NNW 6.9 mph - N/A   Clear
2:35 PM 60.6 °F - 28.8 °F 30% 30.21 in 10.0 mi NNE 5.8 mph - N/A   Clear
2:55 PM 62.1 °F - 29.7 °F 29% 30.20 in 10.0 mi North 10.4 mph 17.3 mph N/A   Clear
3:15 PM 62.4 °F - 29.5 °F 29% 30.20 in 10.0 mi North 4.6 mph - N/A   Clear
3:35 PM 63.0 °F - 29.3 °F 28% 30.19 in 10.0 mi NNW 9.2 mph - N/A   Clear
3:55 PM 63.5 °F - 27.3 °F 25% 30.19 in 10.0 mi NNE 10.4 mph 17.3 mph N/A   Clear
4:15 PM 63.0 °F - 28.0 °F 27% 30.17 in 10.0 mi North 11.5 mph 17.3 mph N/A   Clear
4:35 PM 63.5 °F - 28.4 °F 27% 30.17 in 10.0 mi North 6.9 mph 17.3 mph N/A   Clear
4:55 PM 63.7 °F - 27.0 °F 25% 30.17 in 10.0 mi NNE 10.4 mph 17.3 mph N/A   Clear
5:15 PM 63.9 °F - 26.1 °F 24% 30.17 in 10.0 mi North 10.4 mph 16.1 mph N/A   Clear
5:35 PM 63.9 °F - 24.8 °F 23% 30.16 in 10.0 mi North 11.5 mph 17.3 mph N/A   Clear
5:55 PM 63.5 °F - 26.1 °F 24% 30.17 in 10.0 mi NE 9.2 mph 17.3 mph N/A   Clear
6:15 PM 62.6 °F - 25.5 °F 24% 30.17 in 10.0 mi North 9.2 mph - N/A   Clear
6:35 PM 62.6 °F - 25.3 °F 24% 30.17 in 10.0 mi North 10.4 mph - N/A   Clear
6:55 PM 61.0 °F - 25.7 °F 26% 30.19 in 10.0 mi North 6.9 mph - N/A   Clear
7:15 PM 60.1 °F - 24.8 °F 26% 30.19 in 10.0 mi NNE 4.6 mph - N/A   Clear
7:35 PM 58.6 °F - 25.9 °F 29% 30.20 in 10.0 mi NE 3.5 mph - N/A   Clear
7:55 PM 56.8 °F - 26.2 °F 31% 30.20 in 10.0 mi NNE 3.5 mph - N/A   Clear
8:15 PM 56.3 °F - 26.1 °F 31% 30.20 in 10.0 mi Calm Calm - N/A   Clear
8:35 PM 55.8 °F - 25.7 °F 31% 30.21 in 10.0 mi Calm Calm - N/A   Clear
8:55 PM 54.7 °F - 25.5 °F 32% 30.21 in 10.0 mi Calm Calm - N/A   Clear
9:15 PM 54.0 °F - 24.6 °F 32% 30.22 in 10.0 mi Calm Calm - N/A   Clear
9:35 PM 53.4 °F - 24.8 °F 33% 30.23 in 10.0 mi Calm Calm - N/A   Clear
9:55 PM 49.6 °F - 28.0 °F 43% 30.24 in 10.0 mi Calm Calm - N/A   Clear
10:15 PM 49.3 °F - 29.1 °F 46% 30.24 in 10.0 mi Calm Calm - N/A   Clear
10:35 PM 48.0 °F - 29.3 °F 48% 30.25 in 10.0 mi Calm Calm - N/A   Clear
10:55 PM 47.1 °F - 30.2 °F 52% 30.25 in 10.0 mi NW 4.6 mph - N/A   Clear
11:15 PM 45.7 °F 44.4 °F 30.4 °F 55% 30.26 in 10.0 mi NW 3.5 mph - N/A   Clear
11:35 PM 45.5 °F 43.2 °F 30.9 °F 57% 30.25 in 10.0 mi NW 4.6 mph - N/A   Clear
11:55 PM 43.7 °F - 30.4 °F 59% 30.25 in 10.0 mi Calm Calm - N/A   Clear